Home   Weather   Stade   Past weeks

Flag for Germany Past Weather in Stade, Lower Saxony, Germany — Yesterday and Last 2 Weeks

Now
55 °F

Clear.


Feels Like: 53 °F
Forecast: 53 / 72 °F
Wind: 8 mph from Southeast

Location: Hamburg-Fuhlsbuettel

Current Time: Sep 25, 2016 at 12:43:39 AM

Latest Report: Sep 25, 2016 at 12:20 AM


Visibility: 10 mi

Pressure: 30.18 "Hg

Humidity: 82%

Dew Point: 50 °F

Location of StadeLocation

Past Weather in Stade — Graph

°F

Stade Temperature Yesterday

Maximum temperature yesterday: 70 °F (at 4:50 PM)
Minimum temperature yesterday: 46 °F (at 5:50 AM)
Average temperature yesterday: 58 °F

High & Low Weather Summary for the Past Weeks

 TemperatureHumidityPressure
High86 °F (Sep 13, 1:50 PM)100% (Sep 11, 6:50 AM)30.27 "Hg (Sep 11, 6:50 AM)
Low46 °F (Sep 19, 3:20 AM)29% (Sep 13, 5:20 PM)29.89 "Hg (Sep 16, 3:50 AM)
Average64 °F75%30.07 "Hg
* Reported Sep 9 11:20 PM — Sep 24 11:20 PM, Stade, Weather by CustomWeather, © 2016

Note: Actual official high and low records may vary slightly from our data, if they occured in-between our weather recording intervals... More about our weather records

Advertising

Stade Weather History for the Previous 24 Hours

Scroll right to see more
 ConditionsComfort  
Time TempWeatherWind HumidityBarometerVisibility
11:20 PM
Sat, Sep 24
55 °FClear.6 mph82%30.18 "Hg10 mi
10:50 PM57 °FClear.6 mph77%30.18 "Hg10 mi
10:20 PM57 °FClear.7 mph77%30.18 "Hg10 mi
9:50 PM59 °FClear.7 mph72%30.18 "Hg10 mi
9:20 PM59 °FClear.6 mph72%30.18 "Hg10 mi
8:50 PM61 °FClear.8 mph68%30.18 "Hg10 mi
8:20 PM59 °FClear.7 mph77%30.18 "Hg10 mi
7:50 PM61 °FClear.6 mph72%30.18 "Hg10 mi
7:20 PM61 °FClear.6 mph72%30.18 "Hg10 mi
6:50 PM64 °FSunny.6 mph60%30.18 "Hg10 mi
6:20 PM64 °FPassing clouds.8 mph60%30.18 "HgN/A
5:50 PM66 °FSunny.8 mph56%30.18 "Hg10 mi
5:20 PM68 °FPassing clouds.9 mph53%30.18 "HgN/A
4:50 PM70 °FPartly sunny.9 mph53%30.21 "HgN/A
4:20 PM68 °FPartly sunny.8 mph53%30.21 "HgN/A
3:50 PM68 °FPartly sunny.7 mph56%30.21 "HgN/A
3:20 PM68 °FPartly sunny.9 mph56%30.21 "HgN/A
2:50 PM68 °FPartly sunny.8 mph56%30.24 "HgN/A
2:20 PM68 °FPartly sunny.7 mph53%30.24 "HgN/A
1:50 PM66 °FBroken clouds.7 mph56%30.24 "HgN/A
1:20 PM66 °FBroken clouds.5 mph52%30.27 "HgN/A
12:50 PM66 °FPartly sunny.6 mph56%30.27 "HgN/A
12:20 PM64 °FScattered clouds.7 mph56%30.27 "HgN/A
11:50 AM63 °FScattered clouds.8 mph59%30.27 "HgN/A
11:20 AM63 °FPartly sunny.8 mph64%30.27 "HgN/A
10:50 AM61 °FPassing clouds.6 mph68%30.27 "HgN/A
10:20 AM61 °FPassing clouds.5 mph72%30.27 "HgN/A
9:50 AM57 °FPassing clouds.3 mph82%30.27 "HgN/A
9:20 AM55 °FPassing clouds.3 mph88%30.27 "HgN/A
8:50 AM52 °FPassing clouds.3 mph100%30.27 "HgN/A
8:20 AM48 °FFog.3 mph100%30.27 "HgN/A
7:50 AM46 °FFog.1 mph100%30.27 "HgN/A
7:20 AM46 °FFog.1 mph100%30.24 "HgN/A
6:50 AM46 °FFog.2 mph93%30.24 "HgN/A
6:20 AM46 °FCool.2 mph100%30.24 "HgN/A
5:50 AM46 °FCool.1 mph100%30.24 "HgN/A
5:20 AM48 °FFog.2 mph100%30.24 "HgN/A
4:50 AM48 °FFog.2 mph100%30.24 "HgN/A
4:20 AM48 °FFog.1 mph100%30.24 "HgN/A
3:50 AM48 °FFog.2 mph100%30.24 "HgN/A
3:20 AM50 °FFog.2 mph100%30.24 "HgN/A
2:50 AM50 °FFog.No wind94%30.24 "HgN/A
2:20 AM50 °FFog.No wind94%30.24 "HgN/A
1:50 AM50 °FFog.No wind94%30.24 "HgN/A
1:20 AM52 °FLight fog.2 mph94%30.24 "HgN/A
12:50 AM52 °FPassing clouds.1 mph94%30.24 "HgN/A
12:20 AM54 °FClear.3 mph94%30.24 "Hg10 mi
Weather by CustomWeather, © 2016

See weather overviewHow to use our weather pages